This is the latest recevied weather packets stored in our database for station/object N4YH-13. If no packets are shown the sender has not sent any weather packets the latest 10 day(s).
| Time | Temp. | Humidity | Pressure | Rain* | Wind** | Luminosity | Snow |
|---|---|---|---|---|---|---|---|
| 1777918084 | 24.44° C | 52% | 1013.3 hPa | 0 mm | - | - | - |
| 1777917964 | 24.44° C | 50% | 1013.3 hPa | 0 mm | - | - | - |
| 1777917843 | 23.89° C | 52% | 1013.3 hPa | 0 mm | - | - | - |
| 1777917723 | 23.89° C | 51% | 1013.5 hPa | 0 mm | - | - | - |
| 1777917603 | 23.33° C | 52% | 1013.3 hPa | 0 mm | - | - | - |
| 1777917484 | 23.33° C | 51% | 1013.3 hPa | 0 mm | - | - | - |
| 1777917364 | 23.33° C | 52% | 1013.3 hPa | 0 mm | - | - | - |
| 1777917244 | 23.33° C | 51% | 1013.3 hPa | 0 mm | - | - | - |
| 1777917123 | 23.33° C | 53% | 1013.3 hPa | 0 mm | - | - | - |
| 1777917003 | 23.33° C | 51% | 1013.3 hPa | 0 mm | - | - | - |
| 1777916883 | 23.33° C | 54% | 1013.5 hPa | 0 mm | - | - | - |
| 1777916763 | 23.33° C | 50% | 1013.5 hPa | 0 mm | - | - | - |
| 1777916644 | 23.33° C | 53% | 1013.5 hPa | 0 mm | - | - | - |
| 1777916524 | 23.33° C | 53% | 1013.5 hPa | 0 mm | - | - | - |
| 1777916404 | 22.78° C | 53% | 1013.5 hPa | 0 mm | - | - | - |
| 1777916283 | 23.33° C | 51% | 1013.5 hPa | 0 mm | - | - | - |
| 1777916163 | 22.78° C | 52% | 1013.5 hPa | 0 mm | - | - | - |
| 1777916043 | 22.78° C | 52% | 1013.5 hPa | 0 mm | - | - | - |
| 1777915923 | 22.78° C | 54% | 1013.8 hPa | 0 mm | - | - | - |
| 1777915804 | 22.22° C | 54% | 1013.7 hPa | 0 mm | - | - | - |
| 1777915684 | 22.22° C | 54% | 1013.7 hPa | 0 mm | - | - | - |
| 1777915564 | 22.22° C | 52% | 1013.7 hPa | 0 mm | - | - | - |
| 1777915443 | 22.22° C | 53% | 1013.7 hPa | 0 mm | - | - | - |
| 1777915323 | 22.22° C | 52% | 1013.7 hPa | 0 mm | - | - | - |
| 1777915203 | 22.78° C | 53% | 1013.8 hPa | 0 mm | - | - | - |
* Rain latest hour (hover to see other rain measurements)
** Current wind speed in m/s (hover to see current wind gust speed)